Location: �terpigny
(49.8910°N, 2.9249°E)
Time: 15:52:03
(UTC+00:00)

In-Cosmos 22 Rocket - Pass Details

Date: 24 October 2021
Orbit: 790 x 888 km, 81.2° (Epoch: 27 November)

Event Time Altitude Azimuth Distance (km) Brightness Sun altitude
Rises 18:30:20 0° 347° (NNW) 3,312 7.5 -18.5°
Reaches altitude 10° 18:32:44 10° 347° (NNW) 2,372 6.7 -18.9°
Maximum altitude 18:38:04 84° 261° (W) 802 4.1 -19.7°
Drops below altitude 10° 18:43:22 10° 173° (S) 2,355 6.4 -20.6°
Sets 18:45:44 0° 172° (S) 3,287 7.1 -20.9°
